ECMWFFLT1_925_thetae_162.txt.gz
Theta_e
320 321 320 318 317 317 316 316 315 315 315 315 315 315 316 316 316 316 316 315 315 316 316 316 317 318 319 320 321 323 324 324 324 325 325 326 326 326 326 326 326 326 326 326 326 326 326 327 327 326 326 326 325 325 325 325 325 325 325 325 325 325
320 320 319 318 317 316 315 314 314 314 314 314 314 314 314 315 315 315 315 315 315 314 315 315 316 317 318 319 321 322 323 323 324 324 325 325 325 325 325 326 325 326 325 325 325 325 326 326 326 326 326 325 325 325 325 325 325 325 325 325 325 324
320 319 318 316 315 314 313 313 313 313 313 313 313 314 314 314 314 314 314 314 314 313 313 314 314 315 316 318 320 321 322 322 323 323 324 324 325 325 325 325 325 325 325 325 325 325 325 326 325 325 325 325 324 324 324 324 324 324 324 325 324 324
318 318 317 315 315 314 313 313 312 312 312 313 313 313 314 314 314 314 314 313 313 312 312 313 313 314 315 316 318 319 320 321 322 323 323 324 324 324 324 325 325 325 325 325 325 325 325 325 325 325 324 324 324 324 324 324 324 324 324 324 324 324
318 317 316 315 315 314 313 312 312 312 312 312 313 313 313 314 314 314 313 312 312 312 312 312 312 313 314 315 316 317 318 319 321 322 323 323 323 324 324 324 325 325 325 325 325 325 325 325 325 324 324 323 323 323 323 323 323 323 323 323 323 323
318 317 316 316 315 314 313 312 312 312 311 311 312 312 313 314 314 313 312 311 311 311 311 311 312 312 313 314 315 316 317 318 319 321 322 323 323 323 324 324 324 325 325 325 324 324 324 324 324 323 323 322 322 323 323 323 323 323 323 323 323 323
317 316 316 316 315 315 314 313 313 312 311 311 312 312 313 314 314 313 312 311 311 311 311 311 311 312 313 313 314 315 316 317 319 320 321 322 323 323 323 323 323 324 324 324 324 323 323 323 322 322 322 322 322 322 322 322 322 322 322 322 322 322
315 314 315 315 315 315 314 314 313 312 311 311 312 313 313 314 314 313 311 311 311 311 311 311 312 313 314 314 314 315 316 317 318 319 320 321 322 322 322 321 322 323 323 323 323 322 322 321 321 321 321 321 321 321 321 321 321 322 322 322 322 322
314 314 314 315 315 314 314 313 312 311 311 311 311 312 313 313 314 313 311 311 311 311 311 312 312 314 314 314 314 315 316 317 318 318 319 320 320 321 320 320 321 322 322 322 321 320 320 320 320 320 320 320 321 320 320 320 320 321 321 321 321 321
314 315 315 316 315 314 313 312 312 311 310 311 311 311 312 313 313 312 311 311 311 311 312 313 313 314 314 314 314 315 316 316 317 317 318 318 319 319 319 319 319 319 318 318 318 318 318 318 318 318 319 320 320 320 320 320 320 320 320 320 320 321
316 316 316 316 316 315 314 312 312 311 310 311 311 311 312 312 312 311 311 310 310 311 312 313 312 313 313 312 313 315 315 316 316 316 317 317 317 317 317 316 316 315 315 315 316 317 317 318 318 319 320 320 320 320 320 319 319 319 319 320 320 320
316 317 317 317 316 315 314 313 313 312 311 310 310 311 311 311 311 311 310 309 310 311 311 311 311 311 311 312 313 314 315 315 315 314 314 314 314 314 314 314 314 314 315 316 318 319 319 318 319 319 320 320 321 321 320 320 320 320 320 320 320 319
315 316 316 317 317 316 315 315 314 313 311 311 311 310 310 311 311 310 309 310 311 311 309 310 310 310 310 311 312 313 312 312 311 311 312 312 313 313 313 313 313 314 316 318 318 319 319 319 319 320 321 321 321 321 321 321 321 320 320 320 319 319
314 314 315 316 316 316 316 315 314 313 312 312 311 310 309 310 311 311 311 312 312 310 308 308 308 309 309 310 310 311 310 310 310 311 311 312 312 312 312 312 313 315 316 317 318 319 319 320 320 320 321 322 321 321 321 321 321 321 321 320 319 318
314 314 315 315 316 316 315 315 314 314 313 312 311 309 309 309 310 311 312 312 311 309 308 307 307 307 308 308 309 309 309 310 311 311 312 312 312 312 313 313 314 315 317 318 318 319 319 319 320 320 321 321 321 321 320 320 320 320 319 318 316 315
313 314 315 315 315 315 314 314 313 313 312 311 310 309 308 308 309 309 310 310 309 308 307 307 306 306 307 307 308 308 309 310 311 312 313 313 313 313 314 314 315 316 317 318 318 318 319 319 319 319 319 319 319 319 318 318 317 317 316 316 315 314
314 314 314 314 314 314 314 313 313 312 311 310 309 309 308 308 308 308 308 308 307 307 306 306 305 305 306 306 306 307 309 310 310 311 311 313 314 314 314 315 315 315 316 317 317 317 317 317 317 317 317 317 317 317 317 316 315 314 313 313 312 311
313 313 314 314 314 314 313 313 313 312 311 310 309 309 308 308 307 308 308 307 307 307 306 305 304 305 305 305 305 307 308 309 309 310 312 314 314 314 314 314 314 314 315 315 315 315 315 315 316 315 315 314 314 313 312 311 310 309 307 307 305 304
313 313 313 313 313 313 313 313 313 312 311 310 309 309 308 307 307 308 308 308 307 307 306 305 304 304 304 304 305 306 307 309 310 311 312 313 312 312 311 311 311 311 311 311 310 310 310 310 311 310 308 307 306 305 305 304 303 302 302 301 301 300
312 312 312 312 313 313 313 313 313 312 310 309 309 308 307 306 306 307 308 307 307 307 306 305 304 304 304 304 304 306 307 308 309 310 311 310 310 308 307 307 306 306 305 305 304 304 305 305 304 304 302 301 301 301 301 300 300 300 299 299 298 298
311 311 311 311 312 312 312 312 312 311 309 308 309 308 307 306 307 307 307 307 307 307 306 305 304 303 303 304 304 306 307 307 308 308 308 307 306 305 303 302 302 301 300 301 301 301 301 301 301 300 300 299 299 299 299 300 299 298 297 296 296 296
308 309 309 309 310 310 310 310 309 309 308 308 308 308 308 307 308 308 307 307 307 307 305 304 303 303 303 304 304 305 305 305 304 304 303 303 302 301 300 299 299 299 298 298 298 298 299 299 299 299 298 298 298 298 299 299 299 298 297 296 295 295
306 307 308 308 308 308 308 308 307 307 307 307 308 308 308 308 308 307 307 306 306 306 304 303 303 303 302 303 303 303 302 302 302 301 301 300 299 299 298 298 297 297 296 296 296 297 297 298 298 298 298 298 297 297 298 298 299 298 297 296 296 295
304 305 305 305 306 306 305 305 305 305 306 306 307 307 307 307 307 306 306 305 305 304 303 303 302 301 301 300 300 300 299 299 300 300 299 298 298 297 297 296 295 295 294 294 295 295 296 296 297 297 297 297 297 297 297 297 298 298 298 297 295 295
299 301 302 303 302 301 301 301 302 303 304 305 305 305 305 305 305 305 304 304 304 303 302 302 301 300 299 299 298 298 297 297 297 297 297 297 296 295 294 293 293 293 292 292 293 293 294 294 295 295 295 295 295 296 296 296 297 297 297 296 294 293
295 298 299 299 296 295 296 297 300 301 302 302 302 302 302 302 303 303 303 303 302 302 301 300 299 298 298 297 297 296 295 295 295 295 295 295 294 293 292 292 292 292 292 292 292 291 292 293 293 293 294 294 294 295 295 295 295 295 295 294 293 292
293 294 295 292 289 289 290 292 294 295 295 296 297 297 299 300 301 301 301 301 300 299 298 298 297 296 296 295 295 294 294 293 293 293 293 293 293 292 292 292 292 293 293 292 291 290 290 291 292 292 292 293 293 293 293 293 293 292 292 291 291 290
288 288 288 287 284 284 285 286 287 288 289 290 292 294 296 298 299 299 299 298 298 297 296 295 295 294 294 294 293 293 292 292 292 292 292 292 292 292 292 292 292 293 293 292 291 290 290 290 291 291 291 291 291 291 291 291 291 290 289 289 289 289
284 284 284 283 282 282 282 283 283 284 286 289 291 292 294 296 296 297 296 295 295 294 294 293 293 292 292 292 292 292 292 292 292 292 292 292 292 292 292 292 292 292 292 292 291 289 289 289 290 289 289 289 289 289 289 289 289 289 288 288 288 288
281 281 281 280 280 280 280 280 281 282 285 288 291 292 293 294 294 294 294 293 293 292 292 292 291 291 291 291 291 291 291 291 291 291 291 291 291 292 291 291 291 291 291 291 290 289 289 289 289 289 289 289 288 288 288 288 288 288 287 287 288 288
279 278 279 279 278 278 278 278 279 280 283 286 289 292 292 293 293 293 292 292 292 291 291 290 290 290 290 289 289 289 288 289 289 289 288 288 289 290 290 290 290 290 290 290 289 289 289 289 288 289 289 288 288 288 288 287 287 287 287 287 287 287
277 277 277 277 276 276 276 276 277 278 280 283 287 291 292 292 292 291 291 291 290 290 290 289 289 289 288 288 287 285 285 286 287 287 287 287 287 288 289 289 289 289 289 289 288 288 288 288 288 288 288 287 287 287 287 287 287 286 286 286 286 286
276 276 275 275 275 275 275 274 275 276 278 281 285 288 290 291 291 290 290 289 289 289 289 288 288 288 287 286 286 285 284 284 284 285 285 286 286 287 287 288 287 287 288 288 287 287 287 287 287 287 286 286 286 286 286 286 285 285 285 285 285 286
275 275 274 274 273 273 273 273 273 274 276 279 282 285 287 288 288 288 287 287 287 287 287 286 286 286 286 285 285 285 284 283 283 283 283 284 285 285 286 286 286 286 287 287 286 286 285 285 285 285 285 284 284 284 284 284 284 284 285 285 285 286
275 274 274 273 273 272 272 272 272 273 274 276 278 281 283 283 284 284 284 284 284 284 284 284 284 284 284 283 283 283 283 283 282 282 281 282 283 283 283 284 284 284 285 285 285 284 284 283 283 283 283 283 283 283 283 283 284 284 285 285 285 286
273 273 272 272 272 271 271 270 271 272 273 274 276 277 279 280 280 281 281 282 282 282 282 282 282 281 282 282 282 282 282 281 281 281 281 281 281 281 281 281 281 282 282 282 282 282 282 282 282 282 282 282 282 283 283 284 284 284 284 285 285 286
273 272 272 271 271 270 270 269 269 270 272 274 275 275 276 277 277 278 278 279 280 280 279 280 280 280 280 280 280 280 280 280 280 281 281 281 281 280 279 279 279 279 280 280 280 280 281 281 281 281 282 282 282 283 283 283 283 283 283 283 283 284
272 271 271 270 270 270 269 269 269 270 271 272 273 274 275 275 276 276 276 276 277 277 277 278 278 278 279 279 279 279 279 279 279 279 279 279 279 279 278 277 277 277 278 279 279 279 279 280 281 281 281 281 281 281 282 281 281 282 282 282 282 282

ECMWFFLT1_925_thetae_168.txt.gz
Theta_e
327 321 321 322 322 323 323 322 322 322 322 321 321 320 319 319 318 318 319 319 320 320 320 320 320 321 321 321 322 323 323 324 325 325 326 326 327 327 328 329 330 331 331 332 332 332 332 332 331 331 330 329 328 328 328 328 328 327 327 328 327 327
325 320 321 321 320 320 320 319 319 319 319 318 318 318 317 317 316 316 317 317 317 318 318 319 319 319 319 320 320 321 322 323 323 325 325 326 326 326 327 328 329 329 330 331 332 332 332 332 331 331 330 329 328 328 328 328 328 327 327 327 327 327
321 318 319 319 318 318 317 317 317 317 317 316 316 316 316 315 315 316 316 316 316 317 317 317 317 318 318 319 319 320 320 320 321 322 323 324 325 326 326 327 327 328 328 330 331 332 332 331 331 330 330 329 329 328 328 327 327 327 327 327 327 327
319 316 317 318 319 318 318 317 317 317 317 316 316 316 315 315 315 315 315 315 315 316 316 316 317 317 317 318 318 318 318 319 319 320 321 323 324 324 324 325 326 327 328 330 331 331 331 331 330 330 330 329 328 328 328 327 327 327 327 327 327 327
316 315 316 316 317 317 317 317 317 317 316 316 317 316 315 315 315 315 315 315 315 315 315 315 315 315 316 316 316 316 316 317 317 318 319 320 321 321 323 324 325 327 328 329 330 330 330 330 330 329 329 329 328 328 328 327 327 327 326 326 326 326
316 316 315 315 316 316 316 317 316 317 317 317 317 316 316 315 315 315 315 314 314 314 314 314 314 314 314 314 315 315 315 315 315 316 316 317 318 319 322 323 324 326 327 328 329 329 329 329 329 329 329 329 328 328 328 327 327 326 326 326 325 326
315 315 313 312 313 314 314 315 316 316 316 316 317 316 316 316 315 315 315 314 314 314 314 313 313 313 313 314 314 314 314 315 315 315 315 316 317 318 320 321 323 325 326 327 328 328 328 328 328 328 328 328 328 327 327 327 327 326 326 325 325 325
310 310 309 308 309 310 312 313 314 314 315 315 316 316 316 315 315 315 315 314 314 314 313 313 312 312 313 313 314 314 314 314 315 315 315 315 316 317 318 320 322 324 325 326 326 327 327 327 327 327 327 327 327 327 327 327 326 326 326 325 325 325
307 307 307 306 307 308 309 309 310 311 312 313 314 315 315 316 315 315 315 314 314 314 313 313 312 312 313 313 313 313 314 314 314 314 314 314 315 316 318 319 321 323 324 325 325 326 326 326 326 326 327 327 327 327 327 326 326 326 326 325 325 325
307 308 307 306 306 307 307 307 307 308 309 310 311 313 314 315 315 315 315 314 314 314 313 313 312 312 312 313 313 313 313 313 313 313 313 313 314 315 318 320 321 322 323 324 325 325 325 326 326 326 326 326 326 326 326 326 326 325 325 325 324 324
308 308 308 307 306 306 307 307 307 308 309 311 311 312 313 313 314 314 314 314 314 313 313 313 312 312 312 312 313 313 313 313 312 312 312 312 313 314 315 317 319 321 322 323 324 324 325 325 326 325 325 325 325 325 325 325 325 325 324 324 324 323
309 309 309 308 306 306 307 307 308 310 311 312 312 312 312 312 313 314 314 314 314 313 313 313 312 312 312 312 313 313 313 312 312 312 311 312 312 312 313 314 316 318 320 322 323 323 324 324 324 324 325 325 325 325 325 325 325 324 324 323 323 323
309 309 309 308 307 307 308 309 311 312 312 312 312 312 312 312 313 314 314 314 314 314 313 312 312 312 312 312 312 312 312 312 312 312 311 311 311 311 311 312 314 315 317 320 321 322 322 322 323 323 324 324 324 324 324 324 324 323 323 322 322 321
310 311 311 309 308 308 310 310 311 311 311 311 312 312 312 312 312 312 313 313 313 313 312 312 312 312 312 312 312 312 312 312 312 311 311 310 310 310 310 311 312 313 315 317 319 320 321 321 321 322 322 323 323 323 323 323 322 322 321 321 321 320
312 312 310 307 307 309 310 309 309 310 310 311 311 311 312 312 312 312 312 313 313 313 312 312 311 311 312 312 312 312 312 311 311 311 310 310 310 309 309 309 310 311 312 313 315 317 318 319 319 319 320 321 322 323 323 322 321 320 320 319 319 319
308 307 306 306 307 309 309 309 309 310 310 310 310 310 311 311 312 312 312 313 313 313 312 312 311 311 311 311 311 311 311 311 311 310 310 309 309 308 308 308 308 309 310 311 312 313 314 316 316 316 316 317 319 321 321 321 320 319 318 318 317 317
309 306 305 307 307 307 308 308 309 309 309 309 309 310 310 311 311 312 312 313 313 312 312 311 311 311 311 311 311 311 310 310 310 310 310 309 308 308 307 307 307 307 307 308 308 309 310 312 313 313 313 314 315 317 319 319 318 317 317 316 316 316
306 304 304 304 305 305 306 306 306 307 307 307 308 308 309 309 310 310 310 311 311 312 311 311 311 311 311 311 310 310 310 310 309 310 309 308 308 308 307 307 306 306 306 306 306 306 306 308 309 309 310 310 312 314 315 316 316 315 315 315 315 315
300 300 301 301 302 303 303 303 303 303 304 304 305 306 306 307 307 308 308 308 309 309 309 310 310 310 310 310 309 309 309 309 309 309 308 308 307 307 307 306 306 306 305 305 305 303 304 305 305 306 307 307 308 310 312 312 312 312 313 313 314 315
296 296 297 298 299 299 298 298 298 298 299 301 301 302 303 304 304 304 303 303 303 304 305 306 307 308 308 309 308 308 308 308 308 308 308 307 306 306 306 306 306 305 305 305 304 303 303 303 304 304 305 306 306 308 309 310 310 310 310 311 312 313
293 294 295 296 296 294 294 294 294 294 296 297 298 300 301 300 298 296 296 297 299 300 301 302 303 304 306 306 307 307 307 307 307 307 307 306 306 306 306 306 305 305 305 305 304 304 303 303 304 304 304 305 306 307 309 309 309 309 309 309 309 309
291 292 293 293 292 290 290 290 290 290 292 294 294 296 296 294 292 291 292 294 295 297 298 299 301 302 303 304 305 305 305 306 306 305 305 305 305 305 305 305 305 305 305 305 304 304 304 304 304 304 305 305 306 308 309 309 308 308 308 307 306 305
289 290 290 289 288 286 286 286 286 287 289 290 290 291 290 288 288 288 290 291 293 294 295 297 298 299 300 301 302 302 303 304 304 304 304 303 304 304 304 304 304 304 304 304 304 304 304 304 305 305 305 306 307 308 309 308 308 308 307 305 303 302
287 287 286 286 284 283 283 284 284 285 286 286 287 286 285 285 285 287 288 289 291 292 293 294 295 296 297 298 299 300 301 301 302 302 302 302 302 302 302 302 302 302 303 303 303 304 304 304 304 304 304 305 307 307 306 306 306 306 306 304 302 301
284 284 284 283 282 281 282 282 282 283 283 283 283 283 283 283 284 285 287 288 290 291 293 294 294 295 295 296 297 298 299 299 299 299 300 300 300 300 300 301 301 301 301 301 301 301 301 301 301 302 302 304 305 305 303 302 303 303 304 303 302 301
282 282 281 281 280 280 280 280 280 280 281 280 280 280 280 281 282 284 286 288 291 292 293 293 294 294 295 295 296 296 297 297 297 297 298 298 298 298 298 299 299 299 298 298 298 298 297 297 298 298 299 301 302 302 300 299 299 300 301 301 301 300
280 279 279 279 279 278 278 278 278 278 278 278 277 277 278 279 281 283 286 289 291 292 293 293 293 294 294 294 294 294 294 295 295 296 296 296 297 297 296 296 297 297 297 296 296 295 295 295 295 295 295 296 297 298 297 297 297 298 298 298 298 298
278 278 278 278 278 277 277 277 277 276 276 275 275 276 277 278 281 284 288 290 291 292 292 292 292 293 293 293 293 293 292 292 293 294 294 294 294 295 295 295 296 296 296 295 295 294 293 292 292 292 291 291 292 293 294 295 295 296 296 296 296 296
278 277 277 277 277 276 276 276 275 275 274 274 274 275 276 278 281 285 288 290 290 290 291 291 291 291 291 291 291 291 291 290 290 290 290 290 290 291 293 294 295 295 295 294 293 292 292 291 291 290 290 290 290 291 292 293 293 294 294 294 293 293
277 276 276 276 276 275 274 274 274 274 273 273 274 275 276 277 281 285 288 288 288 288 289 290 290 289 289 288 288 288 288 288 288 287 287 287 287 289 291 293 294 294 294 293 292 291 290 290 289 289 289 289 290 290 291 291 291 292 292 291 291 290
276 275 275 275 274 273 273 273 273 272 272 272 274 274 275 276 279 283 285 286 286 286 287 288 288 288 287 286 285 285 285 285 286 286 286 287 288 289 291 292 292 292 293 292 291 290 289 288 288 289 289 289 289 289 289 290 290 290 290 289 289 289
275 274 274 274 273 272 272 272 272 271 271 271 273 273 274 275 278 280 282 283 284 285 285 286 286 286 286 286 285 284 284 284 284 285 285 286 287 288 290 291 291 291 291 291 290 290 289 288 288 288 288 288 288 288 288 288 289 289 289 288 288 288
274 274 274 273 272 271 271 271 271 270 270 270 271 272 273 274 276 278 279 279 280 282 283 283 284 284 285 285 285 284 284 284 284 284 284 285 286 286 287 288 289 290 290 290 289 288 288 287 287 287 287 287 287 287 287 287 287 288 288 288 288 288
273 273 273 272 271 271 271 270 270 269 269 269 270 271 272 273 274 276 277 277 278 279 280 281 281 282 282 283 283 284 284 283 283 283 283 283 284 284 285 286 287 287 288 289 288 288 287 287 287 287 287 287 287 287 287 287 287 287 287 287 288 288
272 272 272 271 270 270 270 270 269 268 268 268 269 270 271 272 273 274 275 275 276 277 278 278 279 280 280 281 281 281 282 282 283 283 283 282 282 283 283 283 284 285 285 286 286 287 286 286 287 287 287 287 287 287 286 286 286 286 286 287 287 287
272 271 271 270 270 269 269 269 269 268 267 268 268 269 270 271 271 273 274 274 274 275 275 276 277 277 278 279 279 280 280 281 281 281 282 282 281 281 281 282 282 283 283 284 284 284 285 285 285 285 285 285 286 286 286 286 286 286 286 286 287 287
271 270 270 269 269 269 268 268 268 267 267 267 268 268 269 270 270 271 272 273 273 274 274 274 275 275 276 277 277 278 278 279 279 280 280 280 279 279 279 279 280 281 282 283 283 283 283 284 284 284 284 285 285 285 285 285 285 285 285 285 285 285
270 269 269 269 268 268 268 268 267 266 266 267 267 267 268 269 269 270 271 271 272 272 273 273 274 274 275 275 275 276 277 277 277 278 278 278 278 278 278 278 278 279 280 281 281 282 282 283 283 283 283 284 284 285 285 284 284 283 283 282 282 282

ECMWFFLT1_925_thetae_174.txt.gz
Theta_e
311 311 312 312 311 310 310 311 311 310 311 311 311 311 311 311 311 312 313 314 314 315 315 315 315 315 316 316 317 318 319 319 319 320 320 320 320 321 321 322 322 323 323 324 324 325 326 327 328 329 329 329 329 329 328 328 328 327 327 327 327 326
309 309 310 309 309 309 308 309 308 308 309 310 310 310 310 310 310 311 312 312 313 314 314 314 314 315 315 315 315 316 316 316 316 317 317 317 317 317 318 319 320 320 321 322 323 324 324 325 326 327 328 329 329 329 329 328 328 327 327 327 327 327
307 307 308 307 308 308 307 308 307 307 308 308 309 309 309 309 310 311 311 311 312 313 313 313 313 314 314 314 314 315 315 315 314 315 315 315 315 315 316 317 317 318 319 320 321 322 323 323 324 326 327 328 329 329 329 328 328 328 327 327 327 326
306 305 306 306 306 306 306 306 306 306 307 307 307 308 309 309 309 309 310 311 312 312 312 313 313 313 314 314 314 314 314 314 313 313 314 314 314 314 315 315 315 316 317 318 319 320 321 322 323 324 325 326 328 328 328 328 328 328 327 327 327 327
303 304 304 304 305 305 305 305 305 305 306 305 306 307 307 308 308 309 309 310 311 311 312 313 313 314 314 314 314 313 313 313 313 313 313 313 313 313 313 313 313 314 315 316 317 317 319 320 321 323 324 325 326 327 328 328 328 328 327 327 327 327
303 304 303 303 304 304 304 305 305 305 305 305 305 305 306 307 307 307 308 308 310 310 312 312 313 314 314 314 314 313 313 313 313 312 313 312 312 312 312 312 312 313 314 314 314 315 316 317 318 319 321 322 324 325 326 327 327 328 328 327 327 327
305 304 303 303 304 304 304 304 305 305 305 305 305 305 305 306 307 307 307 307 308 309 311 312 313 313 314 314 313 313 313 313 312 313 312 312 312 311 311 312 312 312 313 313 313 314 314 314 315 316 317 319 320 322 324 325 326 327 327 327 327 327
306 304 303 303 303 303 304 304 304 305 305 305 305 306 306 305 305 306 306 306 308 310 312 312 312 313 313 312 312 312 312 312 312 312 312 312 312 311 312 312 312 311 312 312 313 313 313 313 313 314 315 317 318 320 322 323 324 325 326 326 326 326
304 303 302 302 303 303 303 303 304 304 304 304 305 305 305 305 305 306 307 308 309 310 311 311 311 311 311 311 311 311 311 311 312 312 312 312 312 311 311 312 311 311 311 311 312 312 312 312 312 313 313 315 316 318 320 322 323 324 325 326 326 326
303 302 302 301 302 302 302 302 303 303 304 304 304 305 306 307 308 308 309 309 309 309 310 310 310 310 310 311 311 311 311 311 311 311 312 312 312 311 311 311 311 311 311 311 311 311 311 311 311 311 312 312 314 316 318 320 322 323 324 325 325 326
302 303 301 300 301 301 302 302 303 303 304 304 305 306 307 308 308 308 309 309 308 308 308 309 309 309 310 310 310 311 311 311 311 311 311 311 311 311 311 311 311 310 310 310 310 310 310 310 310 310 311 311 313 315 317 319 320 322 323 324 324 325
302 302 301 300 301 302 302 303 304 304 304 304 305 305 306 306 306 307 307 307 307 307 307 307 308 308 309 309 309 310 310 310 310 310 310 310 310 311 311 311 311 310 310 310 310 310 310 310 310 310 310 310 311 313 316 318 319 320 321 322 323 323
301 301 301 300 300 301 301 301 301 301 302 302 302 302 303 303 303 303 304 304 304 304 305 305 305 306 306 307 307 308 308 309 309 309 309 309 309 310 310 310 310 310 310 310 309 309 309 309 309 309 309 309 309 310 312 315 317 318 319 320 321 321
297 297 297 296 296 297 296 296 296 296 297 298 299 299 300 300 301 301 301 301 301 301 301 302 302 302 303 304 304 305 306 306 307 307 307 308 308 308 308 308 309 309 309 309 308 308 308 309 309 308 307 307 308 308 309 311 312 315 316 318 319 320
291 291 291 292 293 291 290 290 290 291 292 294 296 296 297 298 299 298 297 297 297 298 298 299 299 300 300 301 301 302 303 303 304 304 304 304 305 306 306 307 307 307 307 307 307 307 307 308 308 308 307 307 307 307 307 308 309 311 312 314 316 318
287 287 288 290 289 287 285 286 286 287 289 292 293 293 294 294 294 292 291 291 292 294 295 297 297 298 298 299 299 300 300 300 300 301 300 301 302 302 303 304 304 305 305 305 305 305 306 307 307 307 306 306 306 305 305 306 306 308 308 310 312 314
285 285 286 287 286 284 283 284 284 285 287 290 290 290 290 290 289 288 287 287 287 289 291 292 293 294 295 296 297 297 298 298 298 298 298 298 299 299 300 301 301 302 303 303 303 303 304 305 306 305 304 305 305 304 304 304 305 305 306 306 308 309
284 284 285 285 283 282 282 282 282 283 286 287 287 287 287 286 286 286 285 286 286 286 287 287 288 289 290 291 292 293 294 295 295 296 296 296 297 298 297 298 299 299 300 301 301 301 302 304 304 303 303 304 304 303 303 303 303 304 304 304 305 306
283 283 283 283 282 281 281 282 282 283 284 285 285 285 284 284 284 284 284 284 285 285 286 286 287 288 288 289 290 290 291 292 293 293 294 295 296 296 296 297 297 298 298 298 299 299 300 302 303 302 302 302 302 302 302 302 302 302 302 303 303 304
282 282 282 281 281 281 281 281 281 282 283 283 283 283 282 282 282 282 282 283 284 285 286 287 287 288 288 289 289 290 291 292 292 292 293 293 293 294 295 296 296 297 297 297 298 298 298 299 301 300 300 301 301 301 301 301 301 301 301 301 302 302
281 281 281 280 280 280 280 280 280 281 282 282 281 281 280 280 280 280 280 281 283 285 287 287 288 288 289 289 289 290 291 291 292 292 292 292 293 293 294 294 294 296 297 296 296 297 297 297 299 299 299 299 300 300 300 300 300 300 300 301 301 301
281 281 280 279 279 279 279 279 279 280 280 280 279 279 279 279 279 278 279 281 283 285 286 287 288 288 289 289 289 289 290 291 291 292 292 292 293 293 293 293 293 294 295 295 295 296 296 296 297 298 298 298 298 298 299 299 300 300 300 301 301 301
280 280 279 279 278 278 278 278 278 279 279 279 278 278 278 278 278 278 279 281 283 284 285 286 287 288 289 289 289 289 290 291 291 291 291 291 291 291 292 293 293 293 294 294 294 294 295 295 296 296 297 297 297 297 298 298 299 299 300 301 301 301
279 279 279 278 277 277 277 277 277 278 278 278 277 277 277 277 277 278 279 281 282 283 285 286 287 288 288 288 288 288 288 289 289 289 289 288 288 288 289 290 291 291 291 292 293 293 294 294 294 295 296 296 296 296 297 298 298 299 300 300 300 300
279 279 278 277 276 276 276 276 276 277 277 276 276 275 275 276 276 277 279 281 282 283 285 285 286 286 287 287 286 286 286 286 286 286 286 286 285 286 286 286 287 287 288 289 290 291 292 293 293 294 295 295 295 295 295 296 297 298 299 298 299 299
278 278 277 276 276 275 274 274 275 275 275 275 274 274 274 274 276 277 278 280 281 282 283 284 284 285 286 286 286 285 285 285 284 285 285 284 285 285 285 285 285 286 286 287 288 289 290 292 292 293 294 294 294 294 294 294 294 294 294 295 296 297
277 277 276 276 275 274 273 273 273 273 273 273 272 272 272 273 275 276 278 279 280 281 282 283 283 284 284 285 285 285 284 284 284 284 284 285 285 285 285 285 286 286 286 286 286 287 288 289 291 292 292 292 292 292 292 291 291 291 291 292 293 294
276 276 276 275 275 274 273 272 272 271 271 271 270 271 272 273 274 275 277 278 279 279 280 281 282 282 283 284 284 284 284 284 284 284 284 284 284 285 285 286 286 286 286 286 286 286 286 287 288 289 290 289 289 290 290 290 290 290 290 290 291 292
275 275 275 275 274 273 272 271 271 270 270 269 269 269 270 272 272 273 275 277 277 278 279 280 280 281 281 282 282 282 283 283 283 283 283 284 284 284 284 285 286 286 286 286 286 286 286 287 288 288 288 288 288 289 289 289 289 290 290 290 291 292
275 274 274 273 273 273 271 271 271 270 269 268 268 267 268 269 270 271 273 275 276 277 277 278 279 279 279 280 280 281 281 282 283 283 283 283 283 283 283 284 284 285 285 286 286 286 286 286 287 287 287 288 288 288 288 288 289 289 290 290 291 291
274 274 273 273 272 271 270 270 270 269 268 267 266 266 266 267 269 270 272 274 275 275 275 276 277 277 278 278 279 279 280 281 281 282 283 283 282 282 283 283 283 283 284 284 285 285 285 285 286 286 287 287 287 288 288 288 288 288 289 289 290 290
274 273 273 272 272 271 270 270 269 269 268 266 265 266 266 267 268 270 271 272 273 273 274 274 275 275 276 277 277 278 279 280 280 281 281 282 282 282 282 282 282 282 282 283 283 284 284 284 284 285 285 286 287 287 287 288 288 288 288 289 289 289
273 273 272 272 271 270 270 269 269 268 267 265 265 265 265 266 268 269 270 271 272 272 272 273 273 274 274 275 276 276 277 278 279 279 280 280 281 281 281 281 281 282 281 281 282 282 282 282 283 283 284 285 286 286 287 287 287 288 288 288 288 288
272 272 271 270 270 270 269 269 268 268 266 265 264 265 265 266 267 268 269 270 271 271 271 272 272 272 273 273 274 275 275 276 277 278 278 279 280 280 280 280 281 281 281 280 281 281 281 281 281 282 283 284 285 285 286 286 286 287 287 287 287 287
271 271 270 269 268 268 268 268 267 267 266 264 264 264 265 265 266 267 268 269 270 270 270 271 272 272 272 272 273 274 274 275 276 276 277 278 278 278 279 279 279 279 279 279 279 279 280 280 280 281 281 282 284 285 285 285 285 285 285 286 285 284
270 270 268 268 267 267 267 267 266 266 265 264 264 264 264 265 265 266 267 268 269 269 269 270 270 271 271 272 272 273 273 274 275 276 276 277 277 277 277 278 278 277 277 277 277 278 278 278 279 279 280 281 282 283 284 284 285 284 284 283 282 280
269 269 268 267 266 266 266 266 265 265 264 264 263 264 264 264 265 265 266 267 268 268 269 269 269 270 271 271 272 272 272 273 274 275 276 276 276 276 275 275 275 275 275 275 275 276 276 276 277 277 279 280 280 281 282 283 281 279 279 278 278 276
268 268 267 266 265 265 265 265 265 265 264 263 263 263 264 264 264 265 265 266 267 267 268 268 268 269 270 271 271 271 272 272 273 274 275 275 275 274 273 272 272 273 274 274 274 275 275 275 275 275 276 277 278 279 279 278 275 274 273 273 274 274

ECMWFFLT1_925_thetae_180.txt.gz
Theta_e
301 301 301 300 300 300 300 300 300 300 301 301 300 301 301 302 302 303 303 304 305 305 305 306 306 306 307 308 310 312 313 313 314 314 315 315 315 315 316 316 316 316 317 318 318 318 319 319 320 321 322 323 324 325 326 326 326 326 326 326 326 326
300 300 300 299 299 300 299 300 300 300 301 301 300 301 302 302 302 302 303 303 304 305 305 306 306 306 306 307 308 310 311 312 312 312 312 313 313 312 312 313 313 313 313 314 314 315 315 315 316 317 318 319 320 321 323 324 325 325 325 325 325 325
298 298 298 298 298 298 298 299 299 299 299 300 300 300 301 302 303 303 304 304 304 305 305 305 305 306 306 307 309 310 311 312 312 312 312 311 311 311 311 311 311 311 311 312 312 312 312 312 313 313 314 315 316 317 319 320 322 323 324 324 324 324
297 296 296 296 296 297 297 297 297 297 297 297 297 298 298 299 300 302 303 304 305 306 306 306 306 307 308 309 310 311 311 311 311 311 311 311 311 311 311 311 311 311 311 311 311 311 311 311 311 311 311 311 312 313 315 316 318 320 321 322 323 323
294 294 294 294 294 295 295 295 294 294 294 294 294 295 296 296 298 299 301 303 304 305 306 306 307 308 308 309 310 310 310 310 310 310 310 310 310 310 310 310 311 311 311 311 311 310 310 310 310 310 310 310 311 311 312 313 315 317 318 320 321 321
292 292 292 292 292 293 293 293 292 291 291 292 292 292 293 294 296 297 299 300 302 303 304 304 304 305 306 307 308 309 309 310 310 309 309 309 309 309 309 310 310 311 311 311 311 311 310 310 310 310 310 309 310 310 311 312 312 313 315 316 317 318
291 291 290 290 290 290 291 291 290 289 289 289 290 290 290 292 293 295 296 298 299 301 302 302 302 302 303 303 304 306 307 308 309 309 309 308 309 309 309 310 310 310 310 310 310 310 310 310 309 309 309 309 309 309 309 310 310 311 312 312 313 314
290 289 289 289 288 288 289 289 288 287 287 288 288 288 289 289 290 292 294 295 296 297 298 299 299 299 300 300 301 302 303 305 307 308 308 308 308 308 309 309 309 309 310 310 310 310 310 310 309 309 309 309 308 308 308 308 309 309 309 309 310 311
289 288 288 287 287 287 287 288 287 286 286 286 287 287 287 288 288 289 291 292 292 294 295 296 296 296 297 298 299 300 300 301 303 304 306 307 307 308 308 308 309 309 309 309 309 309 309 309 309 308 308 308 307 307 307 307 307 307 307 307 307 308
288 288 287 287 286 286 286 286 286 285 285 285 285 286 286 286 287 288 289 289 290 291 292 293 294 295 296 296 297 298 298 299 300 301 302 304 305 306 306 307 307 308 308 308 308 308 308 307 307 307 307 307 307 306 306 305 305 305 305 306 306 306
287 287 287 286 285 285 285 285 285 284 284 284 284 285 286 286 286 286 287 287 287 288 289 291 293 294 295 295 296 296 297 297 298 298 299 300 301 303 304 304 305 305 306 306 306 306 306 305 305 305 305 305 305 305 305 304 304 304 304 304 305 305
287 287 286 285 285 285 284 284 284 283 283 283 283 284 285 286 286 286 286 285 285 286 286 288 290 291 293 293 293 294 294 295 296 296 297 298 298 299 301 301 302 302 303 304 304 304 304 303 302 303 302 302 303 303 303 303 303 303 303 303 303 304
287 286 286 285 284 284 284 284 284 283 283 283 282 283 283 284 285 285 285 284 285 285 285 285 286 288 289 290 291 291 292 293 294 295 295 296 296 297 298 299 299 300 301 301 302 303 302 301 301 301 301 301 301 301 301 302 302 302 302 302 302 302
286 286 285 285 284 283 283 283 283 283 282 282 282 282 282 283 284 284 284 284 284 284 284 284 285 285 286 287 288 289 290 291 292 293 294 294 294 295 295 296 297 297 298 299 300 301 300 299 299 299 299 299 299 300 300 300 300 300 300 300 300 301
286 286 285 284 284 283 283 283 282 282 281 281 281 281 282 283 283 283 283 283 283 283 283 284 284 285 285 285 286 287 288 288 289 291 292 292 292 293 293 294 294 295 296 296 298 299 299 298 297 297 297 297 297 297 297 298 298 298 299 299 299 300
286 285 285 284 283 283 282 282 282 281 281 280 280 281 281 282 282 282 282 282 282 282 283 283 284 285 285 285 286 286 287 287 287 288 290 291 291 291 292 292 292 293 294 294 295 297 297 296 296 296 296 296 296 295 295 296 297 297 298 298 298 299
286 285 285 284 283 283 282 282 281 281 280 280 279 280 281 281 281 281 281 281 281 281 282 283 283 283 284 285 285 286 286 287 287 287 288 289 289 289 290 290 291 291 292 292 293 294 294 294 294 295 294 294 295 294 294 294 295 296 297 297 297 298
285 285 284 283 283 282 281 281 281 280 279 279 279 279 280 281 280 280 280 280 279 280 280 281 281 282 283 284 285 285 286 287 287 287 288 288 288 288 288 288 288 289 290 290 290 290 290 291 292 292 292 292 293 293 293 294 294 295 296 296 296 296
285 284 284 283 282 281 281 280 280 279 278 278 278 279 279 280 280 279 279 278 278 278 279 279 280 281 282 283 284 285 286 287 287 287 287 287 287 287 287 287 286 287 287 287 287 287 287 288 290 290 290 290 291 292 292 293 294 294 295 295 294 293
284 283 283 282 281 280 280 279 279 278 277 277 277 278 278 279 279 278 277 276 276 277 278 278 279 280 281 282 283 285 285 286 287 286 287 287 286 286 286 286 285 285 285 285 285 285 285 286 288 288 288 288 289 289 290 291 291 292 292 292 292 292
283 282 281 281 280 280 279 278 278 277 276 276 276 277 277 278 277 276 275 275 275 276 277 278 278 279 281 282 283 284 285 286 286 286 286 286 285 285 285 285 284 284 284 284 284 284 285 285 286 286 287 287 288 288 288 288 289 289 290 290 290 290
282 282 281 280 279 279 278 277 277 276 276 275 275 276 276 276 275 274 274 274 274 275 277 278 278 279 280 282 282 283 284 284 285 285 285 285 284 284 284 284 284 284 284 284 285 285 285 285 285 285 286 287 287 288 288 287 288 288 288 288 289 288
282 281 280 280 279 278 277 277 276 276 275 275 275 275 275 274 273 272 272 272 273 274 276 277 278 278 280 280 281 282 282 283 284 285 284 284 284 284 284 284 284 284 284 285 285 285 285 285 285 285 286 286 286 287 287 287 288 288 288 288 288 288
281 280 280 279 278 277 276 276 275 275 274 274 274 274 273 273 272 271 270 270 272 273 274 274 276 277 279 279 280 281 281 281 282 283 284 284 284 284 284 284 284 285 285 285 285 285 285 285 285 285 285 285 286 286 287 287 287 288 288 287 287 288
279 279 279 278 277 276 276 275 275 274 274 273 273 273 272 271 270 270 269 269 270 271 272 273 274 276 277 278 278 279 279 280 281 282 282 283 284 284 284 284 284 284 284 285 285 285 285 285 285 285 285 285 285 285 286 286 287 287 287 286 287 286
278 278 277 277 276 275 275 274 274 273 273 272 272 272 271 270 269 269 269 269 269 270 271 272 273 274 275 276 277 277 278 279 280 280 281 282 283 283 283 283 283 284 284 284 284 284 285 284 284 284 284 284 284 284 284 285 285 286 286 286 286 285
277 276 276 275 275 274 274 274 273 272 272 272 271 271 270 269 268 268 268 268 269 269 270 271 272 273 274 274 275 276 277 278 278 279 280 281 282 283 283 283 283 283 283 283 283 283 283 284 283 283 283 282 282 283 283 283 284 284 285 285 285 285
275 275 274 274 273 273 274 273 272 272 271 271 271 270 269 268 267 267 267 268 268 269 270 271 272 273 273 273 274 274 275 276 276 277 278 280 281 282 282 282 282 282 282 282 282 282 282 282 283 282 282 282 282 281 282 282 283 283 284 285 285 285
274 273 272 272 272 273 273 273 271 271 271 271 270 269 268 267 267 266 267 267 267 268 269 270 271 272 272 272 273 273 273 274 274 275 277 278 279 280 280 281 281 282 281 281 281 281 281 281 281 281 281 281 281 280 280 281 281 282 284 284 285 284
272 272 271 271 271 272 272 271 270 270 270 269 269 268 267 266 266 266 266 266 267 268 269 270 270 271 271 272 272 272 272 272 273 274 275 276 277 279 279 280 280 280 280 280 280 280 280 280 280 280 280 280 280 280 280 280 281 282 283 284 284 283
271 270 270 270 270 271 271 270 269 269 268 268 267 266 266 265 265 265 265 265 266 267 268 269 269 270 270 271 271 271 271 272 272 273 274 275 276 277 279 279 279 278 278 278 278 278 278 278 279 279 279 279 279 279 279 280 280 282 282 282 282 283
269 269 268 268 269 270 270 269 268 267 267 267 266 265 265 264 264 264 264 265 266 266 267 268 268 269 269 270 270 271 271 271 272 273 273 274 275 276 278 278 277 277 276 277 277 277 277 277 278 278 278 278 278 278 278 279 280 281 281 281 282 282
268 268 267 267 267 268 269 268 267 267 266 266 265 265 264 264 263 263 264 264 265 265 266 267 267 268 269 269 269 270 270 271 271 272 272 273 274 276 277 277 276 275 275 275 276 275 275 276 277 277 277 277 276 277 277 278 279 279 279 279 281 280
267 267 266 266 266 267 268 267 267 266 265 265 265 264 264 263 263 263 263 264 264 265 266 266 267 267 268 269 269 269 270 270 271 271 271 272 273 275 276 276 274 274 273 274 274 274 274 275 275 276 276 275 275 275 276 277 277 277 277 279 279 277
266 266 266 266 266 267 267 266 266 265 265 264 264 264 263 263 263 263 263 263 264 264 265 265 266 266 267 268 268 268 269 269 270 270 270 271 272 273 274 274 273 272 272 272 272 273 273 274 274 274 274 274 273 274 275 275 275 275 276 277 275 272
265 265 265 265 265 266 265 265 265 265 264 264 264 264 264 263 263 263 263 263 263 264 264 264 265 266 266 267 267 268 268 268 269 269 270 271 272 272 273 273 272 271 270 271 271 271 271 272 273 273 273 272 272 272 273 275 275 275 274 274 271 269
265 264 264 264 264 264 264 264 264 264 263 263 263 263 264 264 263 263 262 263 263 263 263 264 264 265 266 266 267 267 267 267 268 268 269 270 271 271 271 271 270 269 269 269 269 269 269 270 271 271 271 270 270 270 272 274 273 271 271 270 269 268
264 264 264 263 263 263 263 263 264 263 263 263 263 263 263 263 263 262 262 262 262 262 262 263 264 264 265 266 266 267 266 266 267 267 268 269 269 270 270 270 269 268 268 267 267 267 268 268 269 269 269 268 267 268 269 269 267 266 266 266 266 267

ECMWFFLT1_925_thetae_186.txt.gz
Theta_e
289 289 289 289 289 288 288 289 288 288 287 287 286 287 287 287 287 287 287 288 288 289 289 289 290 291 292 293 294 295 296 297 297 298 298 299 300 300 301 302 303 305 306 306 307 308 310 311 312 314 315 317 319 321 321 321 322 322 323 323 323 323
289 289 289 288 288 288 288 288 288 287 287 287 286 286 286 286 286 287 287 287 287 288 288 289 289 289 290 291 292 293 294 295 296 296 297 298 298 299 300 300 301 302 303 304 305 306 307 308 309 311 312 314 316 318 319 320 321 321 321 321 322 322
289 289 288 288 288 287 287 287 287 287 287 287 286 286 286 286 286 286 286 286 287 287 288 288 288 289 289 289 290 290 292 293 294 295 296 297 297 298 298 299 299 300 300 301 303 304 304 306 307 308 309 311 313 314 315 316 317 318 319 320 320 321
289 288 288 288 288 287 287 287 287 287 287 286 286 286 286 285 285 285 285 286 286 286 287 287 288 288 288 289 289 289 289 290 291 292 294 295 296 296 297 298 298 298 299 300 300 301 302 303 304 305 307 308 309 310 310 311 311 313 314 316 317 318
289 288 288 288 287 287 287 287 287 286 286 286 286 285 285 285 285 284 284 285 286 286 286 286 287 287 288 288 288 288 288 289 289 290 291 292 293 295 295 296 297 297 298 298 299 299 300 301 301 302 303 305 306 308 309 309 310 310 311 313 315 316
289 288 288 288 288 287 287 287 286 286 286 286 285 285 285 284 284 284 284 284 285 285 285 286 286 286 286 286 287 287 287 288 288 288 289 290 291 292 293 294 295 295 296 297 297 298 298 299 300 300 301 302 303 305 306 307 308 309 310 312 314 315
288 288 288 288 287 287 287 287 286 286 285 285 285 284 284 284 283 283 283 284 285 285 285 285 285 285 285 285 285 286 286 287 287 287 288 288 289 290 290 291 292 293 294 294 295 296 297 297 298 299 299 300 300 302 303 304 306 307 308 310 311 311
288 288 288 287 287 287 287 287 286 286 285 285 284 284 284 283 283 282 282 283 284 285 285 284 284 284 284 284 284 285 285 286 286 286 287 287 288 288 289 290 291 291 292 292 293 294 294 295 297 297 298 299 299 299 300 301 303 304 306 307 307 308
287 287 287 287 287 287 287 287 286 286 285 284 284 284 283 283 282 282 282 282 283 284 284 284 283 283 283 283 283 283 284 284 285 285 285 286 287 288 288 289 289 290 290 291 291 292 292 293 294 296 297 297 298 298 298 299 299 300 302 304 305 306
287 287 287 287 287 287 287 286 286 285 285 284 284 283 283 282 282 281 281 282 282 283 283 283 282 282 282 282 282 282 283 283 284 284 284 285 286 287 288 288 288 288 289 290 290 291 291 292 293 294 295 295 295 296 297 297 297 298 299 300 301 302
286 286 287 287 286 286 286 286 286 285 284 284 283 283 282 282 281 281 281 281 282 282 282 282 282 282 281 281 281 282 282 282 283 283 284 284 286 287 287 288 288 288 288 289 289 289 289 290 291 292 292 292 292 293 294 295 296 296 296 297 298 298
286 286 286 286 286 286 286 286 285 285 284 283 283 282 282 281 281 281 281 281 281 281 281 281 281 281 280 280 280 281 281 282 282 283 283 284 285 286 287 287 288 288 288 288 288 288 288 289 289 290 289 289 290 291 292 293 294 294 295 296 296 296
285 286 286 286 285 285 285 285 285 284 283 283 282 282 281 281 280 280 280 280 280 280 281 281 280 279 279 279 279 280 280 281 281 282 283 284 284 285 286 287 287 287 287 287 287 288 287 287 288 288 287 288 288 289 290 291 292 293 294 295 295 296
285 285 285 285 285 285 285 285 284 283 283 282 282 281 281 280 280 280 280 280 280 280 280 280 279 278 277 278 278 279 280 280 281 282 283 283 284 285 286 286 287 287 287 287 287 287 287 287 286 286 287 287 287 287 288 289 291 292 293 294 294 295
285 285 285 284 284 284 284 284 284 283 282 281 281 280 280 280 280 280 279 279 279 279 279 278 277 276 276 277 277 278 278 279 280 281 282 283 284 284 285 285 286 286 286 286 286 286 286 286 286 286 286 286 286 287 287 288 289 291 291 292 293 293
284 284 284 284 284 284 284 283 283 282 281 281 280 280 280 280 279 279 279 278 278 278 278 277 276 275 275 276 276 277 278 279 280 281 282 282 283 284 284 285 285 285 286 286 286 286 286 285 285 285 286 286 286 286 287 288 289 289 290 290 290 291
283 283 283 283 284 284 283 282 282 281 280 280 279 279 279 279 279 279 278 278 278 277 276 275 275 274 275 275 276 276 277 278 279 280 281 282 282 283 283 284 284 284 285 285 285 285 285 285 285 285 285 285 286 286 287 287 288 289 289 289 289 290
282 282 283 283 283 283 283 282 280 280 279 279 279 279 279 278 278 278 278 277 277 276 275 274 274 274 274 274 275 275 276 277 278 279 280 281 281 282 282 283 283 284 284 285 285 285 285 285 285 285 285 285 286 286 286 287 287 288 288 289 289 289
282 282 283 283 282 282 282 280 279 279 278 278 278 278 278 278 277 277 277 276 275 275 274 273 273 273 273 274 274 274 275 276 277 278 279 280 281 281 281 282 282 283 284 284 285 285 285 285 285 285 285 285 285 286 286 286 287 287 287 288 288 288
281 282 281 281 281 281 280 279 278 278 278 278 277 277 277 277 276 276 275 275 274 274 273 272 272 272 273 273 273 274 274 275 276 277 278 279 279 280 280 281 281 282 283 284 284 285 285 285 285 285 285 285 285 285 285 286 286 286 286 287 287 288
280 280 280 280 280 279 279 278 277 277 277 276 276 276 276 275 275 274 274 273 273 272 272 272 272 272 272 272 273 273 274 274 275 276 277 277 278 278 279 280 280 281 282 283 283 284 285 285 285 285 284 285 285 285 285 285 285 285 285 285 286 286
279 279 278 278 278 278 277 276 275 275 275 275 276 275 275 274 274 273 273 272 272 272 271 271 271 271 271 271 272 272 273 273 274 275 276 276 276 277 277 278 279 280 281 282 283 284 284 285 285 284 284 284 284 284 284 284 284 284 284 284 284 285
278 278 277 277 277 276 275 274 274 274 274 275 275 274 274 273 272 272 272 271 271 270 270 270 271 271 270 271 271 271 271 272 273 274 275 275 275 276 276 277 278 279 280 281 282 283 284 284 284 284 284 284 283 283 283 283 283 283 283 283 283 283
277 277 277 276 276 275 274 273 273 273 274 274 274 273 273 272 271 271 271 270 270 269 270 270 270 269 270 270 270 270 271 272 273 273 274 274 274 275 275 276 277 278 279 280 281 282 282 283 283 283 283 282 282 282 282 282 282 282 282 282 282 282
276 276 276 275 274 273 272 272 272 273 273 273 273 272 271 270 270 270 269 268 268 268 269 269 269 269 269 269 269 270 271 271 272 272 273 273 274 274 275 275 276 277 278 279 280 280 281 281 281 281 280 280 280 280 281 281 281 281 281 281 281 281
275 275 275 274 273 272 271 271 271 272 272 272 272 270 269 269 269 269 267 267 267 267 267 267 267 268 268 268 269 269 270 271 271 272 272 272 273 273 274 275 275 276 277 278 279 280 280 279 279 279 279 279 279 279 279 280 280 280 280 280 279 280
274 274 274 273 272 271 271 270 270 270 271 271 270 269 268 268 268 267 266 266 266 266 266 266 266 267 267 268 268 269 269 270 270 271 271 272 272 273 273 274 274 275 276 277 278 278 278 277 277 278 278 278 278 278 278 278 279 279 279 278 278 279
274 273 273 272 271 271 270 269 269 269 269 270 269 268 267 267 266 265 265 265 265 265 265 266 266 266 267 267 268 268 269 269 270 270 271 271 271 272 273 273 274 274 275 276 277 277 276 276 276 277 277 276 277 277 277 277 278 278 278 277 278 278
273 272 272 271 271 270 269 269 268 268 268 268 268 268 266 266 265 264 264 265 265 265 265 265 265 266 266 267 267 268 268 269 269 270 270 270 271 271 272 272 273 273 274 275 276 276 275 275 275 275 275 275 276 276 276 277 277 277 277 277 277 278
271 271 271 270 270 269 268 268 267 267 267 267 267 266 265 265 264 264 264 264 264 264 265 265 265 265 266 266 266 267 267 268 269 269 269 270 270 271 271 272 272 273 274 275 275 274 274 274 274 274 274 275 275 275 276 276 276 276 276 276 276 277
270 270 269 269 269 268 268 267 266 266 266 267 266 265 264 264 263 263 263 264 264 264 264 264 264 265 265 265 266 266 267 267 268 268 269 269 270 270 271 271 272 273 274 275 274 273 273 273 273 273 274 274 274 275 275 275 275 275 275 275 276 276
269 268 268 268 268 267 267 266 266 266 266 265 265 264 264 263 263 262 263 263 263 263 263 263 264 264 264 265 265 265 266 266 267 268 268 269 269 269 270 271 272 273 274 274 273 272 272 272 272 272 273 273 273 273 273 274 274 273 274 275 275 275
268 267 267 267 267 266 266 265 265 265 265 264 263 263 263 263 262 262 262 262 262 262 263 263 263 264 264 264 264 265 265 266 266 267 268 268 268 268 269 270 271 272 272 272 271 271 271 271 271 272 272 272 272 272 272 272 272 272 273 273 273 273
267 267 266 266 266 265 265 264 264 264 263 263 262 262 262 262 262 261 261 262 262 262 262 263 263 263 264 264 264 264 265 265 266 266 267 267 267 267 268 269 270 270 270 270 270 270 270 270 270 271 271 271 271 271 271 271 270 271 271 272 271 271
266 266 266 265 265 264 264 264 263 263 262 262 262 261 261 261 261 261 261 261 261 262 262 262 263 263 263 263 263 264 264 265 266 266 266 266 266 266 267 268 268 268 268 268 269 269 269 269 269 270 270 270 270 270 270 269 269 269 269 269 269 269
265 265 265 265 264 264 263 263 263 262 262 261 261 261 261 261 261 261 261 261 261 261 261 262 262 263 263 263 263 263 264 264 265 265 265 265 265 266 266 267 267 267 267 267 267 267 267 268 268 269 269 269 269 269 268 268 268 268 268 267 266 266
264 264 264 264 263 263 262 262 262 262 261 261 260 260 260 261 261 260 260 260 260 261 261 261 262 262 262 262 262 263 263 264 264 265 265 265 265 265 266 266 266 266 266 266 266 266 266 266 267 268 268 268 268 267 267 266 266 266 266 265 265 265
263 263 263 263 262 262 261 262 262 262 261 260 260 260 260 260 260 260 260 260 260 260 260 261 261 261 261 261 261 262 263 263 263 264 264 264 264 265 265 265 265 265 265 265 265 265 265 265 266 266 266 266 266 266 265 264 264 264 264 264 264 264